| time (UTC) | temp F | wind direction | speed knots | gust knots | rain 1hr in | rain 24hr in | rain mn in | humidity % | barometer mb |
| 20260505201037 | 63 | 341 | 0.0 | 1.7 | 0.00 | 0.27 | 0.12 | 43 | 1015.8 |
| 20260505200517 | 63 | 328 | 0.0 | 3.5 | 0.00 | 0.27 | 0.12 | 45 | 1015.9 |
| 20260505200059 | 63 | 257 | 0.9 | 3.5 | 0.00 | 0.27 | 0.12 | 48 | 1015.9 |
| 20260505195539 | 62 | 333 | 0.0 | 1.7 | 0.00 | 0.27 | 0.12 | 42 | 1015.8 |
| 20260505195016 | 63 | 17 | 0.0 | 1.7 | 0.00 | 0.27 | 0.12 | 40 | 1015.8 |
| 20260505194602 | 62 | 27 | 0.0 | 0.9 | 0.00 | 0.27 | 0.12 | 42 | 1015.9 |
| 20260505194043 | 62 | 333 | 0.0 | 2.6 | 0.00 | 0.27 | 0.12 | 42 | 1016.0 |
| 20260505193520 | 62 | 333 | 0.0 | 2.6 | 0.00 | 0.27 | 0.12 | 41 | 1016.0 |
| 20260505193130 | 62 | 334 | 0.0 | 1.7 | 0.00 | 0.27 | 0.12 | 40 | 1015.9 |
| 20260505192540 | 62 | 282 | 0.0 | 6.1 | 0.00 | 0.27 | 0.12 | 47 | 1016.0 |
| 20260505192021 | 62 | 276 | 0.0 | 6.1 | 0.00 | 0.27 | 0.12 | 45 | 1016.0 |
| 20260505191507 | 62 | 351 | 0.0 | 3.5 | 0.00 | 0.27 | 0.12 | 43 | 1016.0 |
| 20260505191051 | 62 | 320 | 0.0 | 3.5 | 0.00 | 0.27 | 0.12 | 41 | 1016.0 |
| 20260505190529 | 61 | 269 | 0.0 | 2.6 | 0.00 | 0.27 | 0.12 | 41 | 1016.0 |
| 20260505190009 | 61 | 353 | 0.0 | 1.7 | 0.00 | 0.27 | 0.12 | 38 | 1015.9 |
| 20260505185552 | 61 | 321 | 0.0 | 3.5 | 0.00 | 0.27 | 0.12 | 33 | 1015.9 |
| 20260505185031 | 61 | 313 | 0.0 | 3.5 | 0.00 | 0.27 | 0.12 | 34 | 1015.9 |
| 20260505184526 | 61 | 226 | 0.0 | 2.6 | 0.00 | 0.27 | 0.12 | 36 | 1015.8 |
| 20260505184102 | 61 | 349 | 0.9 | 2.6 | 0.00 | 0.27 | 0.12 | 32 | 1015.8 |
| 20260505183541 | 60 | 221 | 0.9 | 2.6 | 0.00 | 0.27 | 0.12 | 31 | 1015.7 |
| 20260505183023 | 60 | 18 | 0.0 | 2.6 | 0.00 | 0.27 | 0.12 | 21 | 1015.8 |
| 20260505182603 | 59 | 300 | 0.0 | 2.6 | 0.00 | 0.27 | 0.12 | 18 | 1015.8 |
| 20260505182042 | 59 | 321 | 0.9 | 3.5 | 0.00 | 0.27 | 0.12 | 17 | 1015.9 |
| 20260505181521 | 58 | 312 | 0.9 | 2.6 | 0.00 | 0.27 | 0.12 | 7 | 1015.8 |
| 20260505181107 | 58 | 316 | 0.9 | 2.6 | 0.00 | 0.27 | 0.12 | 7 | 1015.8 |
| 20260505180542 | 57 | 354 | 0.0 | 1.7 | 0.00 | 0.27 | 0.12 | 1 | 1015.8 |
| 20260505180037 | 57 | 333 | 0.9 | 2.6 | 0.00 | 0.27 | 0.12 | 3 | 1015.8 |
| 20260505175508 | 57 | 339 | 0.0 | 2.6 | 0.00 | 0.27 | 0.12 | 3 | 1015.8 |
| 20260505175051 | 57 | 326 | 0.9 | 2.6 | 0.00 | 0.27 | 0.12 | 2 | 1015.8 |
| 20260505174530 | 57 | 293 | 0.0 | 1.7 | 0.00 | 0.27 | 0.12 | 1 | 1015.7 |
| 20260505174009 | 57 | 213 | 0.0 | 1.7 | 0.00 | 0.27 | 0.12 | 1 | 1015.6 |
| 20260505173550 | 57 | 275 | 0.0 | 2.6 | 0.00 | 0.27 | 0.12 | 1 | 1015.5 |
| 20260505173030 | 57 | 277 | 0.0 | 2.6 | 0.00 | 0.27 | 0.12 | 2 | 1015.5 |
| 20260505172511 | 57 | 238 | 0.0 | 2.6 | 0.00 | 0.27 | 0.12 | 1 | 1015.5 |
| 20260505172052 | 57 | 258 | 0.0 | 2.6 | 0.00 | 0.27 | 0.12 | 1 | 1015.5 |
| 20260505171532 | 57 | 214 | 0.0 | 1.7 | 0.00 | 0.27 | 0.12 | 1 | 1015.4 |
| 20260505171013 | 57 | 44 | 0.0 | 1.7 | 0.00 | 0.27 | 0.12 | 1 | 1015.5 |
| 20260505170554 | 57 | 8 | 0.0 | 0.9 | 0.00 | 0.27 | 0.12 | 1 | 1015.5 |
| 20260505170037 | 57 | 284 | 0.0 | 2.6 | 0.00 | 0.27 | 0.12 | 1 | 1015.6 |
| 20260505165510 | 57 | 246 | 0.0 | 1.7 | 0.00 | 0.27 | 0.12 | 1 | 1015.6 |
| 20260505165054 | 56 | 245 | 0.0 | 1.7 | 0.00 | 0.27 | 0.12 | 1 | 1015.5 |
| 20260505164538 | 56 | 237 | 0.0 | 1.7 | 0.00 | 0.27 | 0.12 | 1 | 1015.4 |
| 20260505164012 | 56 | 221 | 0.0 | 2.6 | 0.00 | 0.27 | 0.12 | 1 | 1015.5 |
| 20260505163554 | 55 | 221 | 0.0 | 2.6 | 0.00 | 0.27 | 0.12 | 1 | 1015.5 |
| 20260505163040 | 55 | 198 | 0.0 | 0.9 | 0.00 | 0.27 | 0.12 | 1 | 1015.5 |
| 20260505162513 | 55 | 332 | 0.0 | 2.6 | 0.00 | 0.27 | 0.12 | 1 | 1015.5 |
| 20260505162056 | 55 | 30 | 0.0 | 2.6 | 0.00 | 0.27 | 0.12 | 1 | 1015.4 |
| 20260505161536 | 55 | 272 | 0.0 | 2.6 | 0.00 | 0.27 | 0.12 | 1 | 1015.5 |
| 20260505161015 | 55 | 248 | 0.0 | 4.3 | 0.00 | 0.27 | 0.12 | 1 | 1015.5 |
| 20260505160557 | 55 | 256 | 0.0 | 4.3 | 0.00 | 0.27 | 0.12 | 1 | 1015.4 |
| 20260505153047 | 54 | 210 | 0.0 | 5.2 | 0.00 | 0.27 | 0.12 | 1 | 1015.2 |
| 20260505152520 | 54 | 250 | 0.0 | 5.2 | 0.00 | 0.27 | 0.12 | 1 | 1015.1 |
| 20260505152103 | 53 | 270 | 0.9 | 6.1 | 0.00 | 0.27 | 0.12 | 1 | 1015.1 |
| 20260505151541 | 53 | 257 | 0.9 | 6.1 | 0.00 | 0.27 | 0.12 | 1 | 1015.0 |
| 20260505151021 | 53 | 337 | 0.0 | 4.3 | 0.00 | 0.27 | 0.12 | 1 | 1015.0 |
| 20260505150607 | 53 | 215 | 0.0 | 4.3 | 0.00 | 0.27 | 0.12 | 1 | 1015.0 |
| 20260505140513 | 52 | 154 | 0.0 | 0.0 | 0.00 | 0.27 | 0.12 | 1 | 1014.7 |
| 20260505130111 | 52 | 213 | 0.0 | 2.6 | 0.00 | 0.27 | 0.12 | 1 | 1014.3 |
| 20260505125019 | 52 | 252 | 0.0 | 1.7 | 0.00 | 0.27 | 0.12 | 1 | 1014.2 |
| 20260505124606 | 52 | 252 | 0.0 | 1.7 | 0.00 | 0.27 | 0.12 | 1 | 1014.2 |
| 20260505124041 | 52 | 226 | 0.0 | 1.7 | 0.00 | 0.27 | 0.12 | 1 | 1014.2 |
| 20260505123520 | 52 | 221 | 0.0 | 0.0 | 0.00 | 0.27 | 0.12 | 1 | 1014.2 |
| 20260505123115 | 52 | 221 | 0.0 | 0.0 | 0.00 | 0.27 | 0.12 | 1 | 1014.3 |
| 20260505122541 | 52 | 221 | 0.0 | 0.9 | 0.00 | 0.27 | 0.12 | 1 | 1014.3 |
| 20260505122022 | 52 | 221 | 0.0 | 1.7 | 0.00 | 0.27 | 0.12 | 1 | 1014.4 |
| 20260505121501 | 52 | 153 | 0.0 | 0.9 | 0.00 | 0.27 | 0.12 | 1 | 1014.4 |
| 20260505121047 | 52 | 255 | 0.0 | 0.9 | 0.00 | 0.27 | 0.12 | 1 | 1014.3 |
| 20260505120521 | 52 | 254 | 0.0 | 0.9 | 0.00 | 0.27 | 0.12 | 1 | 1014.3 |
| 20260505120002 | 52 | 254 | 0.0 | 1.7 | 0.00 | 0.27 | 0.12 | 1 | 1014.3 |
| 20260505115544 | 52 | 254 | 0.0 | 1.7 | 0.00 | 0.27 | 0.12 | 1 | 1014.3 |
| 20260505115024 | 52 | 154 | 0.0 | 1.7 | 0.00 | 0.27 | 0.12 | 1 | 1014.1 |
| 20260505114503 | 52 | 231 | 0.0 | 1.7 | 0.00 | 0.27 | 0.12 | 1 | 1014.1 |
| 20260505114046 | 51 | 223 | 0.0 | 0.9 | 0.00 | 0.27 | 0.12 | 1 | 1014.2 |
| 20260505113534 | 51 | 221 | 0.0 | 0.9 | 0.00 | 0.27 | 0.12 | 1 | 1014.2 |
| 20260505113014 | 51 | 221 | 0.0 | 0.9 | 0.00 | 0.27 | 0.12 | 1 | 1014.2 |
| 20260505112555 | 51 | 285 | 0.0 | 3.5 | 0.00 | 0.27 | 0.12 | 1 | 1014.2 |
| 20260505112036 | 51 | 214 | 0.0 | 1.7 | 0.00 | 0.27 | 0.12 | 1 | 1014.2 |
| 20260505111530 | 51 | 231 | 0.0 | 1.7 | 0.00 | 0.27 | 0.12 | 1 | 1014.2 |
| 20260505111002 | 51 | 157 | 0.9 | 1.7 | 0.00 | 0.27 | 0.12 | 1 | 1014.4 |
| 20260505110544 | 51 | 195 | 0.0 | 1.7 | 0.00 | 0.27 | 0.12 | 1 | 1014.5 |
| 20260505102010 | 51 | 254 | 0.0 | 1.7 | 0.00 | 0.27 | 0.12 | 1 | 1014.5 |
| 20260505101554 | 51 | 159 | 0.0 | 1.7 | 0.00 | 0.27 | 0.12 | 1 | 1014.5 |
| 20260505101036 | 51 | 145 | 0.0 | 1.7 | 0.00 | 0.27 | 0.12 | 1 | 1014.5 |
| 20260505100513 | 51 | 153 | 0.0 | 1.7 | 0.00 | 0.27 | 0.12 | 1 | 1014.5 |
| 20260505100057 | 51 | 207 | 0.0 | 1.7 | 0.01 | 0.27 | 0.12 | 1 | 1014.4 |
| 20260505095533 | 51 | 225 | 0.0 | 1.7 | 0.02 | 0.27 | 0.12 | 1 | 1014.2 |
| 20260505095012 | 51 | 157 | 0.0 | 1.7 | 0.02 | 0.27 | 0.12 | 1 | 1014.3 |
| 20260505094556 | 51 | 142 | 0.0 | 2.6 | 0.02 | 0.27 | 0.12 | 1 | 1014.4 |
| 20260505094035 | 51 | 158 | 0.0 | 2.6 | 0.03 | 0.27 | 0.12 | 1 | 1014.6 |
| 20260505093514 | 51 | 221 | 0.0 | 2.6 | 0.03 | 0.27 | 0.12 | 1 | 1014.6 |
| 20260505093057 | 51 | 201 | 0.9 | 2.6 | 0.03 | 0.27 | 0.12 | 1 | 1014.7 |
| 20260505092537 | 51 | 223 | 0.0 | 1.7 | 0.03 | 0.27 | 0.12 | 1 | 1014.7 |
| 20260505092016 | 51 | 245 | 0.0 | 2.6 | 0.03 | 0.27 | 0.12 | 1 | 1014.8 |
| 20260505091621 | 51 | 248 | 0.0 | 2.6 | 0.03 | 0.27 | 0.12 | 1 | 1014.8 |
| 20260505091037 | 51 | 235 | 0.0 | 3.5 | 0.03 | 0.27 | 0.12 | 1 | 1014.8 |
| 20260505090517 | 51 | 166 | 0.9 | 3.5 | 0.03 | 0.27 | 0.12 | 1 | 1014.8 |
| 20260505090123 | 51 | 243 | 0.9 | 3.5 | 0.02 | 0.26 | 0.11 | 1 | 1014.7 |
| 20260505085540 | 51 | 205 | 0.0 | 2.6 | 0.02 | 0.25 | 0.10 | 1 | 1014.9 |
| 20260505085019 | 51 | 197 | 0.0 | 2.6 | 0.02 | 0.25 | 0.10 | 1 | 1014.9 |
| 20260505084616 | 51 | 166 | 0.0 | 0.9 | 0.03 | 0.25 | 0.10 | 1 | 1015.0 |
| 20260505084040 | 51 | 350 | 0.0 | 0.9 | 0.04 | 0.24 | 0.09 | 1 | 1015.0 |
| 20260505083525 | 51 | 350 | 0.0 | 0.9 | 0.05 | 0.24 | 0.09 | 1 | 1015.2 |
| 20260505083112 | 51 | 350 | 0.0 | 1.7 | 0.06 | 0.24 | 0.09 | 1 | 1015.2 |
| 20260505082542 | 51 | 350 | 0.0 | 1.7 | 0.07 | 0.24 | 0.09 | 1 | 1015.2 |
| 20260505082022 | 51 | 13 | 0.0 | 0.0 | 0.08 | 0.24 | 0.09 | 1 | 1015.1 |
| 20260505081502 | 51 | 13 | 0.0 | 0.0 | 0.08 | 0.24 | 0.09 | 1 | 1015.1 |
| 20260505081044 | 51 | 13 | 0.0 | 0.0 | 0.08 | 0.24 | 0.09 | 1 | 1015.1 |
| 20260505080522 | 51 | 13 | 0.0 | 0.0 | 0.08 | 0.24 | 0.09 | 1 | 1015.1 |
| 20260505080006 | 51 | 13 | 0.0 | 0.0 | 0.09 | 0.24 | 0.09 | 1 | 1015.2 |
| 20260505075544 | 51 | 13 | 0.0 | 0.9 | 0.08 | 0.23 | 0.08 | 1 | 1015.2 |
| 20260505075023 | 51 | 13 | 0.0 | 0.9 | 0.08 | 0.23 | 0.08 | 1 | 1015.3 |
| 20260505074503 | 51 | 13 | 0.0 | 0.9 | 0.06 | 0.21 | 0.06 | 1 | 1015.3 |
| 20260505074046 | 51 | 13 | 0.0 | 0.0 | 0.05 | 0.20 | 0.05 | 1 | 1015.3 |
| 20260505073525 | 51 | 13 | 0.0 | 0.0 | 0.04 | 0.19 | 0.04 | 1 | 1015.5 |
| 20260505073010 | 51 | 13 | 0.0 | 0.0 | 0.03 | 0.18 | 0.03 | 1 | 1015.3 |
| 20260505072030 | 51 | 13 | 0.0 | 0.0 | 0.02 | 0.16 | 0.01 | 1 | 1015.2 |
| 20260505071510 | 51 | 13 | 0.0 | 0.9 | 0.02 | 0.16 | 0.01 | 1 | 1015.2 |
| 20260505071056 | 51 | 13 | 0.0 | 0.9 | 0.02 | 0.16 | 0.01 | 1 | 1015.3 |
| 20260505070535 | 51 | 13 | 0.0 | 0.0 | 0.02 | 0.16 | 0.01 | 1 | 1015.5 |
| 20260505070012 | 51 | 13 | 0.0 | 0.0 | 0.02 | 0.15 | 0.15 | 1 | 1015.6 |
| 20260505065555 | 51 | 13 | 0.0 | 0.0 | 0.02 | 0.15 | 0.15 | 1 | 1015.5 |
| 20260505065034 | 51 | 13 | 0.0 | 0.9 | 0.03 | 0.15 | 0.15 | 1 | 1015.5 |
| 20260505064514 | 51 | 13 | 0.0 | 0.9 | 0.04 | 0.15 | 0.15 | 1 | 1015.5 |
| 20260505064057 | 51 | 13 | 0.0 | 0.9 | 0.04 | 0.15 | 0.15 | 1 | 1015.4 |
| 20260505063535 | 51 | 13 | 0.0 | 0.9 | 0.05 | 0.15 | 0.15 | 1 | 1015.3 |
| 20260505063013 | 51 | 13 | 0.0 | 0.0 | 0.06 | 0.15 | 0.15 | 1 | 1015.3 |
| 20260505062555 | 51 | 13 | 0.0 | 0.9 | 0.05 | 0.14 | 0.14 | 1 | 1015.3 |
| 20260505062034 | 51 | 13 | 0.0 | 0.9 | 0.05 | 0.14 | 0.14 | 1 | 1015.3 |
| 20260505061525 | 51 | 261 | 0.0 | 1.7 | 0.06 | 0.14 | 0.14 | 1 | 1015.0 |
| 20260505061057 | 51 | 326 | 0.0 | 1.7 | 0.06 | 0.14 | 0.14 | 1 | 1015.1 |
| 20260505060537 | 51 | 263 | 0.0 | 0.9 | 0.06 | 0.14 | 0.14 | 1 | 1015.0 |
| 20260505060024 | 51 | 263 | 0.0 | 0.9 | 0.05 | 0.13 | 0.13 | 1 | 1015.0 |
| 20260505055557 | 51 | 266 | 0.0 | 0.9 | 0.06 | 0.13 | 0.13 | 1 | 1015.1 |
| 20260505055037 | 52 | 337 | 0.0 | 0.9 | 0.05 | 0.12 | 0.12 | 1 | 1015.3 |
| 20260505054518 | 52 | 337 | 0.0 | 0.9 | 0.04 | 0.11 | 0.11 | 1 | 1015.3 |
| 20260505054059 | 52 | 337 | 0.0 | 0.0 | 0.05 | 0.11 | 0.11 | 1 | 1015.4 |
| 20260505053538 | 52 | 337 | 0.0 | 0.9 | 0.04 | 0.10 | 0.10 | 1 | 1015.5 |
| 20260505053019 | 52 | 337 | 0.0 | 0.9 | 0.04 | 0.09 | 0.09 | 1 | 1015.4 |
| 20260505052601 | 52 | 337 | 0.0 | 0.9 | 0.05 | 0.09 | 0.09 | 1 | 1015.3 |
| 20260505052040 | 52 | 337 | 0.0 | 0.0 | 0.05 | 0.09 | 0.09 | 1 | 1015.2 |
| 20260505051520 | 52 | 337 | 0.0 | 0.0 | 0.05 | 0.08 | 0.08 | 1 | 1015.2 |
| 20260505051104 | 52 | 337 | 0.0 | 0.0 | 0.05 | 0.08 | 0.08 | 1 | 1015.2 |
| 20260505050541 | 52 | 337 | 0.0 | 0.0 | 0.06 | 0.08 | 0.08 | 1 | 1015.3 |
| 20260505041550 | 52 | 355 | 0.0 | 0.9 | 0.02 | 0.03 | 0.03 | 1 | 1015.9 |
| 20260505041018 | 53 | 355 | 0.0 | 0.9 | 0.02 | 0.03 | 0.03 | 1 | 1015.9 |
| 20260505040508 | 53 | 355 | 0.0 | 0.9 | 0.01 | 0.02 | 0.02 | 1 | 1015.8 |
| 20260505040050 | 53 | 358 | 0.0 | 0.9 | 0.01 | 0.02 | 0.02 | 1 | 1015.6 |
| 20260505035633 | 53 | 358 | 0.0 | 1.7 | 0.01 | 0.02 | 0.02 | 1 | 1015.6 |
| 20260505035016 | 53 | 358 | 0.0 | 2.6 | 0.01 | 0.02 | 0.02 | 1 | 1015.4 |
| 20260505034600 | 53 | 358 | 0.0 | 2.6 | 0.01 | 0.02 | 0.02 | 1 | 1015.2 |
| 20260505034039 | 53 | 352 | 0.0 | 1.7 | 0.01 | 0.02 | 0.02 | 1 | 1015.0 |
| 20260505033520 | 53 | 11 | 0.9 | 5.2 | 0.01 | 0.02 | 0.02 | 1 | 1014.8 |
| 20260505033102 | 53 | 339 | 0.0 | 5.2 | 0.00 | 0.01 | 0.01 | 1 | 1014.8 |
| 20260505032541 | 54 | 343 | 0.9 | 3.5 | 0.00 | 0.01 | 0.01 | 1 | 1014.7 |
| 20260505032023 | 54 | 330 | 1.7 | 3.5 | 0.00 | 0.01 | 0.01 | 1 | 1014.7 |
| 20260505031603 | 54 | 353 | 0.9 | 3.5 | 0.00 | 0.01 | 0.01 | 1 | 1014.7 |
| 20260505031042 | 54 | 298 | 0.9 | 3.5 | 0.01 | 0.01 | 0.01 | 1 | 1014.6 |
| 20260505030522 | 54 | 342 | 0.9 | 6.1 | 0.01 | 0.01 | 0.01 | 1 | 1014.6 |
| 20260505030002 | 54 | 339 | 1.7 | 4.3 | 0.01 | 0.01 | 0.01 | 1 | 1014.6 |
| 20260505025542 | 54 | 328 | 0.0 | 3.5 | 0.01 | 0.01 | 0.01 | 1 | 1014.6 |
| 20260505025022 | 54 | 318 | 1.7 | 3.5 | 0.01 | 0.01 | 0.01 | 3 | 1014.6 |
| 20260505024502 | 54 | 321 | 1.7 | 4.3 | 0.01 | 0.01 | 0.01 | 1 | 1014.6 |
| 20260505024044 | 54 | 327 | 1.7 | 4.3 | 0.01 | 0.01 | 0.01 | 1 | 1014.6 |
| 20260505023523 | 54 | 328 | 1.7 | 3.5 | 0.01 | 0.01 | 0.01 | 1 | 1014.6 |
| 20260505023003 | 54 | 304 | 0.9 | 3.5 | 0.01 | 0.01 | 0.01 | 1 | 1014.7 |
| 20260505022546 | 55 | 309 | 0.9 | 3.5 | 0.01 | 0.01 | 0.01 | 1 | 1014.7 |
| 20260505022025 | 55 | 303 | 0.9 | 2.6 | 0.01 | 0.01 | 0.01 | 1 | 1014.8 |
| 20260505021609 | 55 | 323 | 0.0 | 3.5 | 0.01 | 0.01 | 0.01 | 1 | 1014.7 |
| 20260505021056 | 55 | 345 | 0.9 | 4.3 | 0.00 | 0.00 | 0.00 | 1 | 1014.7 |
| 20260505020535 | 55 | 335 | 0.9 | 4.3 | 0.00 | 0.00 | 0.00 | 1 | 1014.6 |
| 20260505020014 | 55 | 340 | 0.9 | 4.3 | 0.00 | 0.00 | 0.00 | 1 | 1014.6 |
| 20260505015558 | 55 | 323 | 0.9 | 4.3 | 0.00 | 0.00 | 0.00 | 1 | 1014.7 |
| 20260505015037 | 55 | 326 | 0.9 | 3.5 | 0.00 | 0.00 | 0.00 | 2 | 1014.7 |
| 20260505014531 | 56 | 330 | 1.7 | 3.5 | 0.00 | 0.00 | 0.00 | 4 | 1014.8 |
| 20260505014104 | 56 | 337 | 0.9 | 2.6 | 0.00 | 0.00 | 0.00 | 5 | 1014.9 |
| 20260505013540 | 56 | 293 | 0.9 | 2.6 | 0.00 | 0.00 | 0.00 | 6 | 1015.0 |
| 20260505013026 | 56 | 328 | 0.9 | 4.3 | 0.00 | 0.00 | 0.00 | 8 | 1015.0 |
| 20260505012603 | 56 | 324 | 0.9 | 4.3 | 0.00 | 0.00 | 0.00 | 9 | 1015.1 |
| 20260505012042 | 56 | 322 | 1.7 | 4.3 | 0.00 | 0.00 | 0.00 | 10 | 1015.0 |
| 20260505011532 | 56 | 318 | 1.7 | 4.3 | 0.00 | 0.00 | 0.00 | 9 | 1015.0 |
| 20260505011001 | 56 | 316 | 0.9 | 3.5 | 0.00 | 0.00 | 0.00 | 9 | 1015.0 |
| 20260505010544 | 56 | 347 | 0.0 | 3.5 | 0.00 | 0.00 | 0.00 | 12 | 1015.0 |
| 20260505010031 | 57 | 312 | 0.9 | 2.6 | 0.00 | 0.00 | 0.00 | 13 | 1015.0 |
| 20260505005510 | 57 | 338 | 0.9 | 3.5 | 0.00 | 0.00 | 0.00 | 20 | 1014.9 |
| 20260505005054 | 57 | 333 | 1.7 | 3.5 | 0.00 | 0.00 | 0.00 | 26 | 1014.9 |
| 20260505004545 | 57 | 314 | 0.9 | 3.5 | 0.00 | 0.00 | 0.00 | 32 | 1014.8 |
| 20260505004012 | 58 | 319 | 0.9 | 3.5 | 0.00 | 0.00 | 0.00 | 39 | 1014.9 |
| 20260505003555 | 59 | 323 | 1.7 | 3.5 | 0.00 | 0.00 | 0.00 | 48 | 1014.9 |
| 20260505003051 | 59 | 324 | 1.7 | 3.5 | 0.00 | 0.00 | 0.00 | 57 | 1015.0 |
| 20260505002513 | 59 | 312 | 1.7 | 3.5 | 0.00 | 0.00 | 0.00 | 58 | 1015.1 |
| 20260505002057 | 59 | 326 | 1.7 | 3.5 | 0.00 | 0.00 | 0.00 | 59 | 1015.0 |
| 20260505001538 | 59 | 326 | 0.0 | 2.6 | 0.00 | 0.00 | 0.00 | 59 | 1015.0 |
| 20260505001018 | 59 | 330 | 0.0 | 2.6 | 0.00 | 0.00 | 0.00 | 59 | 1015.0 |
| 20260505000558 | 59 | 331 | 0.9 | 2.6 | 0.00 | 0.00 | 0.00 | 58 | 1015.0 |
| 20260505000038 | 59 | 340 | 0.0 | 2.6 | 0.00 | 0.00 | 0.00 | 59 | 1015.0 |
| 20260504235517 | 60 | 316 | 0.9 | 3.5 | 0.00 | 0.00 | 0.00 | 59 | 1015.0 |
| 20260504235101 | 60 | 343 | 0.9 | 3.5 | 0.00 | 0.00 | 0.00 | 58 | 1015.0 |
| 20260504234543 | 60 | 333 | 0.9 | 3.5 | 0.00 | 0.00 | 0.00 | 58 | 1014.9 |
| 20260504234022 | 60 | 1 | 0.9 | 2.6 | 0.00 | 0.00 | 0.00 | 57 | 1014.9 |
| 20260504233605 | 60 | 284 | 0.0 | 4.3 | 0.00 | 0.00 | 0.00 | 55 | 1014.9 |
| 20260504233046 | 61 | 323 | 0.0 | 4.3 | 0.00 | 0.00 | 0.00 | 52 | 1014.9 |
| 20260504232532 | 61 | 247 | 0.9 | 4.3 | 0.00 | 0.00 | 0.00 | 53 | 1014.8 |
| 20260504232011 | 61 | 235 | 0.0 | 3.5 | 0.00 | 0.00 | 0.00 | 53 | 1014.8 |
| 20260504231556 | 61 | 219 | 0.0 | 4.3 | 0.00 | 0.00 | 0.00 | 53 | 1014.7 |
| 20260504231034 | 61 | 234 | 0.9 | 4.3 | 0.00 | 0.00 | 0.00 | 54 | 1014.8 |
| 20260504230516 | 61 | 225 | 0.0 | 4.3 | 0.00 | 0.00 | 0.00 | 54 | 1014.8 |
| 20260504230057 | 61 | 221 | 1.7 | 7.0 | 0.00 | 0.00 | 0.00 | 54 | 1014.7 |
| 20260504225536 | 61 | 222 | 1.7 | 7.0 | 0.00 | 0.00 | 0.00 | 55 | 1014.7 |
| 20260504225016 | 61 | 232 | 1.7 | 4.3 | 0.00 | 0.00 | 0.00 | 55 | 1014.7 |
| 20260504224559 | 61 | 224 | 1.7 | 6.1 | 0.00 | 0.00 | 0.00 | 56 | 1014.7 |
| 20260504224038 | 61 | 203 | 1.7 | 6.1 | 0.00 | 0.00 | 0.00 | 58 | 1014.8 |
| 20260504223517 | 62 | 207 | 0.9 | 4.3 | 0.00 | 0.00 | 0.00 | 59 | 1014.8 |
| 20260504223125 | 62 | 328 | 0.0 | 5.2 | 0.00 | 0.00 | 0.00 | 59 | 1014.9 |
| 20260504222540 | 62 | 219 | 0.9 | 7.8 | 0.00 | 0.00 | 0.00 | 59 | 1014.9 |
| 20260504222019 | 62 | 249 | 0.9 | 4.3 | 0.00 | 0.00 | 0.00 | 59 | 1014.9 |
| 20260504221604 | 62 | 255 | 0.9 | 3.5 | 0.00 | 0.00 | 0.00 | 59 | 1014.9 |
| 20260504221042 | 63 | 271 | 0.0 | 5.2 | 0.00 | 0.00 | 0.00 | 58 | 1015.0 |
| 20260504220521 | 63 | 162 | 2.6 | 7.0 | 0.00 | 0.00 | 0.00 | 58 | 1015.0 |
| 20260504220009 | 63 | 222 | 1.7 | 7.0 | 0.00 | 0.00 | 0.00 | 58 | 1015.0 |
| 20260504215557 | 63 | 162 | 1.7 | 5.2 | 0.00 | 0.00 | 0.00 | 58 | 1015.0 |
| 20260504215036 | 64 | 202 | 0.9 | 5.2 | 0.00 | 0.00 | 0.00 | 58 | 1015.1 |
| 20260504214511 | 63 | 226 | 0.9 | 6.1 | 0.00 | 0.00 | 0.00 | 58 | 1015.0 |
| 20260504214057 | 63 | 229 | 0.9 | 6.1 | 0.00 | 0.00 | 0.00 | 58 | 1014.9 |
| 20260504213533 | 63 | 243 | 2.6 | 5.2 | 0.00 | 0.00 | 0.00 | 58 | 1015.0 |
| 20260504213022 | 62 | 248 | 1.7 | 5.2 | 0.00 | 0.00 | 0.00 | 59 | 1015.0 |
| 20260504212556 | 62 | 256 | 1.7 | 5.2 | 0.00 | 0.00 | 0.00 | 58 | 1015.1 |
| 20260504212036 | 62 | 254 | 0.9 | 7.8 | 0.00 | 0.00 | 0.00 | 58 | 1015.1 |
| 20260504211529 | 62 | 176 | 3.5 | 7.8 | 0.00 | 0.00 | 0.00 | 59 | 1015.2 |
| 20260504211059 | 61 | 145 | 0.0 | 6.1 | 0.00 | 0.00 | 0.00 | 58 | 1015.2 |
| 20260504210537 | 61 | 290 | 2.6 | 6.1 | 0.00 | 0.00 | 0.00 | 58 | 1015.2 |
| 20260504210017 | 61 | 241 | 0.9 | 7.0 | 0.00 | 0.00 | 0.00 | 58 | 1015.2 |
| 20260504205601 | 61 | 101 | 3.5 | 7.8 | 0.00 | 0.00 | 0.00 | 59 | 1015.1 |
| 20260504205037 | 62 | 185 | 3.5 | 7.8 | 0.00 | 0.00 | 0.00 | 58 | 1015.2 |
| 20260504204519 | 62 | 255 | 0.9 | 7.0 | 0.00 | 0.00 | 0.00 | 58 | 1015.2 |
| 20260504204100 | 62 | 195 | 2.6 | 7.8 | 0.00 | 0.00 | 0.00 | 59 | 1015.3 |
| 20260504203548 | 62 | 199 | 3.5 | 7.8 | 0.00 | 0.00 | 0.00 | 59 | 1015.2 |
| 20260504203026 | 62 | 185 | 2.6 | 7.8 | 0.00 | 0.00 | 0.00 | 59 | 1015.1 |
| 20260504202506 | 62 | 274 | 2.6 | 7.8 | 0.00 | 0.00 | 0.00 | 59 | 1015.1 |
| 20260504202049 | 63 | 167 | 3.5 | 6.1 | 0.00 | 0.00 | 0.00 | 58 | 1015.1 |
| 20260504201529 | 63 | 237 | 0.9 | 4.3 | 0.00 | 0.00 | 0.00 | 58 | 1015.0 |